AirNav   Pilot Hours Calculator
 
 1249 users online  

6PN6 Henke Heliport
Pittsburgh, Pennsylvania, USA

GOING TO PITTSBURGH?


FAA INFORMATION EFFECTIVE 30 JANUARY 2020

Location

FAA Identifier: 6PN6
Lat/Long: 40-23-00.0000N 080-18-00.0000W
40-23.000000N 080-18.000000W
40.3833333,-80.3000000
(estimated)
Elevation: 1255 ft. / 383 m (estimated)
From city: 2 miles SE of PITTSBURGH, PA
Time zone: UTC -5 (UTC -4 during Daylight Saving Time)
Zip code: 15019

Heliport Operations

Heliport use: Private use. Permission required prior to landing
Activation date: 09/2004
Control tower: no
ARTCC: CLEVELAND CENTER
FSS: ALTOONA FLIGHT SERVICE STATION
Attendance: UNATNDD
Wind indicator: yes
Segmented circle: no
Lights: FOR PERIMETER LGTS CALL 724-796-5944.

Heliport Communications

WX ASOS at PIT (7 nm NE): PHONE 412-472-0145
WX AWOS-A at 42PN (14 nm E): PHONE 412-442-2213
WX AWOS-3PT at AFJ (15 nm S): 119.175 (724-228-3529)
WX ASOS at AGC (17 nm E): 120.55 (412-466-8968)

Nearby radio navigation aids

VOR radial/distance  VOR name  Freq  Var
AGCr307/13.4ALLEGHENY VOR/DME110.0009W
HLGr066/14.3WHEELING VOR/DME112.2007W
EWCr197/26.8ELLWOOD CITY VOR/DME115.8008W
AIRr054/32.3BELLAIRE VOR/DME117.1007W

 
NDB name  Hdg/Dist  Freq  Var  ID
CADIZ082/33.823907WCFX -.-. ..-. -..-
CASTLE181/38.727209WUCP ..- -.-. .--.

Heliport Services

Runway Information

Helipad H1

Dimensions: 33 x 33 ft. / 10 x 10 m
Surface: concrete
Traffic pattern: leftleft

Heliport Ownership and Management from official FAA records

Ownership: Privately-owned
Owner: JACOB HENKE
1146 VALLEY VIEW RD
BULGER, PA 15019
Phone 724-796-5944
Manager: JACOB HENKE
1146 VALLEY VIEW RD
BULGER, PA 15019
Phone 724-796-5944
JOANNE HENKE

Heliport Operational Statistics

Aircraft based on the field: 1
Helicopters: 1
    

Additional Remarks

HELIPAD CIRCULAR IN SHAPE.
FOR CD CTC PITTSBURGH APCH AT 412-472-5591

Instrument Procedures

There are no published instrument procedures at 6PN6.

Some nearby airports with instrument procedures:

KPIT - Pittsburgh International Airport (7 nm NE)
KAFJ - Washington County Airport (15 nm S)
G05 - Finleyville Airpark (16 nm SE)
KAGC - Allegheny County Airport (17 nm E)
2G2 - Jefferson County Airpark (18 nm W)
 
Loc | Ops | Rwys | IFR | FBO | Links
Com | Nav | Svcs | Stats | Notes
Area around 6PN6 (Henke Heliport)
 
Road maps at: MapQuest Bing Google
 
Aerial photo
No photo
 
Sectional chart

 
Airport distance calculator
Flying to Henke Heliport? Find the distance to fly.

From to 6PN6

Sunrise and sunset
Times for 17-Feb-2020
 Local
(UTC-5)
 Zulu
(UTC)
Morning civil twilight06:4511:45
Sunrise07:1312:13
Sunset17:5722:57
Evening civil twilight18:2523:25

Current date and time
Zulu (UTC)  17-Feb-2020 22:17:26
Local (UTC-5)  17-Feb-2020 17:17:26
 
METAR
KPIT 
7nm N 
172151Z 09006KT 10SM OVC100 07/M05 A3013 RMK AO2 SLP224 T00721050
KAFJ 
16nm S 
172156Z AUTO 07005KT 10SM BKN100 08/M04 A3014 RMK AO2 SLP219 T00781044 PWINO
KAGC 
18nm E 
172153Z 07005KT 10SM OVC100 08/M05 A3013 RMK AO2 SLP218 T00781050
TAF
KPIT 
7nm N 
171724Z 1718/1824 12006KT P6SM BKN200 FM180700 14010KT P6SM VCSH OVC050 WS020/18045KT FM181200 19009KT 6SM -SHRA OVC025 WS020/22045KT FM181500 23010KT 5SM -SHRA OVC010 FM182100 28010G18KT P6SM VCSH BKN015
KAGC 
18nm E 
171724Z 1718/1818 12007KT P6SM SCT100 BKN200 FM180700 14010KT P6SM VCSH OVC050 WS020/18045KT FM181200 19011KT 6SM -SHRA OVC025 WS020/22045KT FM181500 23010KT 3SM -SHRA OVC010
NOTAMs
Click for the latest NOTAMs
NOTAMs are issued by the DoD/FAA and will open in a separate window not controlled by AirNav.

 

 
 

Would you like to see your business listed on this page?

 If your business provides an interesting product or service to pilots, flight crews, aircraft, or users of the Henke Heliport, you should consider listing it here.  To start the listing process, click on the button below
 
Add a business
 

Other Pages about Henke Heliport

Update a link
 
Copyright © AirNav, LLC. All rights reserved. Privacy Policy  Contact